Temperature
17 18 18 18 18 17 17 17 17 17 17 17 17 17 16 17 17 17 17 17 17 17 17 17 17 18 18 17 17 18 18 17 17 17 17 17 17 17 17 17 17 17 17
17 18 19 19 18 17 17 17 17 17 16 17 17 17 16 16 16 16 17 17 17 17 17 17 17 17 18 18 17 17 17 17 17 17 17 17 17 17 17 17 17 17 17
17 17 18 18 17 17 17 17 17 17 16 16 16 16 16 16 16 16 16 16 16 17 17 17 17 17 17 17 17 17 17 17 17 17 17 17 17 17 16 17 16 16 16
17 17 17 17 17 17 17 16 16 16 16 16 16 16 16 16 16 16 16 16 16 16 16 17 17 17 17 17 17 17 17 17 17 17 17 17 17 17 17 16 16 16 16
17 17 17 17 17 16 16 16 16 16 16 16 16 16 16 16 16 16 16 16 16 16 16 16 17 17 17 17 17 17 17 16 16 17 17 17 17 17 16 16 16 16 15
17 17 17 17 16 16 16 16 16 16 16 16 16 16 16 16 15 15 16 16 16 16 17 17 17 16 16 17 17 17 16 16 16 16 16 17 17 17 17 16 16 16 16
17 17 17 17 17 17 17 17 16 16 16 15 15 15 15 15 15 15 15 15 16 16 17 17 17 16 16 16 16 16 16 16 16 16 16 16 17 17 17 17 16 15 16
17 17 17 17 16 17 17 16 16 15 15 15 15 15 15 15 15 15 15 15 15 15 16 16 16 16 16 16 16 16 16 16 16 16 16 16 16 16 16 17 16 16 16
17 17 17 17 17 16 16 16 16 15 15 15 15 15 15 15 15 15 15 15 15 15 15 16 16 16 16 16 16 16 16 16 16 16 16 16 16 16 16 16 15 15 15
17 17 17 16 16 16 16 15 15 15 15 15 15 14 15 15 14 15 15 15 15 14 15 15 15 15 15 16 16 16 16 16 16 16 16 16 16 15 15 15 15 15 15
17 17 17 17 16 16 16 15 15 15 15 15 15 15 14 14 13 13 14 15 15 15 15 15 15 15 15 15 15 16 16 16 16 16 16 16 15 15 15 15 15 14 15
17 17 17 16 16 16 15 15 15 15 15 15 15 15 15 14 13 14 14 14 14 15 15 15 15 15 15 15 15 15 16 16 16 16 16 16 15 15 15 15 15 14 14
17 17 16 16 16 16 15 15 15 15 14 14 14 15 14 14 14 14 14 14 14 14 15 15 15 15 15 15 15 15 15 15 16 16 16 15 15 15 15 15 15 15 15
16 16 16 16 16 15 15 14 14 14 14 14 14 14 14 14 14 13 14 14 13 14 15 15 15 15 15 15 15 15 15 15 15 16 16 15 15 15 15 15 15 15 15
16 16 16 16 16 15 15 14 14 14 14 14 14 14 14 13 13 14 14 14 13 13 14 14 15 16 16 15 15 15 15 15 15 15 15 15 15 15 15 15 15 15 15
16 16 17 16 16 15 14 14 14 14 14 14 14 14 13 13 13 13 13 13 13 13 13 14 15 15 16 16 16 15 15 15 15 15 15 15 15 15 15 15 15 15 15
17 16 16 16 15 14 14 14 14 14 14 14 14 13 13 13 12 12 13 13 13 13 13 13 14 15 15 16 16 16 15 15 15 15 15 15 15 15 15 15 14 14 14
17 17 16 15 15 14 14 14 13 13 13 13 13 13 12 12 12 12 13 13 13 13 13 13 14 15 15 15 16 16 15 15 15 15 15 15 15 15 14 14 14 14 14
16 16 16 16 15 14 14 13 13 13 13 13 13 13 12 12 12 12 12 13 13 13 13 13 14 14 14 15 15 16 16 15 15 15 15 15 15 15 14 14 14 14 14
15 15 15 15 15 15 14 14 14 13 13 13 13 13 12 12 13 12 12 13 13 13 13 13 13 13 13 14 14 15 15 15 15 15 15 15 15 15 14 14 14 14 14
14 14 14 14 15 15 15 14 14 14 14 13 13 13 13 12 12 12 12 12 12 12 12 13 13 13 13 13 14 14 15 15 15 15 15 15 15 15 15 14 14 14 14
14 14 14 14 15 15 15 15 14 14 14 14 13 13 13 13 12 12 12 12 12 12 12 12 12 12 12 12 13 13 14 14 14 15 14 15 14 15 15 14 14 14 14
14 14 14 14 15 15 15 15 14 14 14 14 13 13 13 13 13 13 12 12 12 12 12 12 12 12 12 12 12 12 13 13 14 14 14 15 14 14 14 14 14 15 14
13 13 14 14 14 14 15 14 14 14 14 14 13 13 13 13 13 13 13 13 12 12 12 11 11 11 11 11 12 12 12 12 12 13 14 14 14 14 14 14 14 14 14
12 12 13 13 13 13 13 13 14 14 14 14 14 13 13 13 13 13 13 13 12 12 12 12 12 11 11 11 12 12 12 12 12 13 13 13 14 13 14 14 14 14 14
11 11 12 12 12 12 12 13 13 13 13 13 13 13 13 13 13 12 13 13 13 13 13 12 12 12 12 12 12 12 12 12 12 12 12 12 12 12 13 13 13 13 13
Wind_Speed
3 4 4 5 5 4 4 2 2 3 3 5 6 6 5 5 5 5 6 7 6 3 2 4 5 5 7 6 5 7 8 8 7 7 7 7 5 4 3 3 2 1 2
6 4 4 4 5 6 6 4 3 3 4 5 5 6 5 5 5 6 7 8 7 4 2 3 3 2 5 6 4 5 6 6 5 4 4 4 4 2 2 2 1 1 2
9 6 4 4 5 7 6 3 2 3 3 3 3 4 4 3 3 5 7 8 8 8 6 4 5 5 5 5 5 6 6 7 6 4 4 3 2 1 1 1 1 1 2
11 7 4 5 8 8 5 3 2 2 2 3 3 3 3 2 0 2 4 5 6 7 9 8 8 7 7 6 6 6 6 7 6 5 5 4 2 0 2 4 3 1 2
13 9 6 6 7 5 3 3 2 3 3 3 3 2 2 2 1 1 2 3 3 4 6 7 10 10 10 7 7 6 5 5 5 4 4 3 1 1 2 2 2 2 2
13 10 6 6 6 4 4 5 4 3 2 3 2 2 2 1 0 1 1 1 1 2 4 4 6 8 11 10 9 8 5 4 4 4 4 2 0 1 3 3 3 3 5
10 7 4 4 5 6 6 6 3 3 2 3 3 2 2 2 1 2 1 1 1 2 0 2 2 3 6 9 9 9 7 6 6 6 5 2 1 1 3 4 4 4 6
7 5 4 5 6 6 6 6 4 3 2 3 4 3 1 2 2 3 3 2 3 3 3 2 1 2 2 4 6 6 8 7 7 7 5 3 3 0 3 3 4 5 5
8 7 6 4 5 5 5 5 5 5 4 3 2 4 4 4 2 3 3 4 3 3 3 4 3 2 2 2 3 3 5 7 7 6 5 4 4 3 2 2 3 5 6
6 7 6 5 6 6 6 6 7 5 6 5 3 2 4 3 1 1 3 4 4 5 5 4 5 5 4 3 2 3 3 5 5 4 4 5 4 5 7 6 6 6 7
5 7 8 6 6 5 6 7 7 7 6 6 5 4 3 3 2 1 3 3 3 5 5 5 6 7 7 6 5 3 3 2 3 3 3 4 5 6 8 7 8 7 6
4 4 5 4 5 5 5 5 6 6 6 5 5 5 5 5 4 4 4 4 4 4 5 5 5 8 9 8 7 6 5 4 3 3 3 4 5 5 5 5 5 6 6
2 4 4 5 5 5 5 5 5 5 5 6 6 5 4 7 6 5 5 3 3 3 2 4 5 9 10 12 11 10 9 7 6 4 3 2 3 3 4 4 3 3 4
3 4 5 5 6 5 5 5 4 5 5 5 6 5 4 5 6 7 6 5 3 3 2 4 3 7 11 13 13 11 10 9 8 7 5 4 3 2 1 2 2 2 3
3 5 4 3 2 2 4 4 5 5 5 4 4 3 2 4 6 5 5 5 5 4 3 5 5 4 8 11 12 12 11 11 11 10 8 7 6 4 3 2 1 1 3
4 4 4 4 3 2 3 4 2 1 2 4 2 2 2 3 5 6 7 7 7 6 5 4 5 4 4 7 11 11 13 13 13 13 12 10 8 6 5 4 3 3 4
5 5 6 4 4 5 5 4 2 2 2 2 1 2 4 3 4 5 6 7 9 8 9 6 3 3 4 5 6 9 11 11 13 14 14 12 10 8 7 6 5 5 5
5 7 7 7 7 7 6 6 5 4 3 3 1 2 5 5 6 7 7 9 9 9 9 8 5 4 4 3 3 5 6 9 12 14 15 14 13 12 11 10 9 7 6
4 4 4 7 8 8 8 7 7 5 3 3 2 2 5 5 5 5 6 7 8 8 8 7 6 4 3 1 2 2 3 5 9 12 14 15 15 15 15 14 12 10 8
3 4 5 6 6 5 6 7 8 8 6 5 4 3 3 2 4 5 4 5 6 7 7 7 5 4 3 1 1 2 4 5 6 7 10 13 15 17 17 15 13 12 10
2 3 4 4 3 4 5 7 8 9 8 7 5 3 1 1 3 3 2 1 1 2 3 3 3 3 3 3 3 3 5 3 6 6 4 6 9 10 12 14 14 14 14
2 3 5 4 3 3 3 4 7 7 7 7 6 4 3 2 3 4 5 5 5 5 4 2 3 5 5 4 3 4 4 4 4 5 6 5 6 7 9 13 16 16 16
5 5 5 4 4 5 7 5 4 6 6 6 6 6 4 4 5 5 5 6 5 7 5 3 3 4 3 4 4 4 5 5 4 4 4 2 3 5 8 12 17 19 19
7 6 5 4 4 7 12 9 5 2 4 5 6 6 5 4 4 5 4 5 5 5 6 6 6 6 4 3 3 4 5 4 2 3 5 3 3 3 3 8 14 18 20
7 7 6 6 6 8 13 10 6 4 1 1 3 4 4 4 6 7 6 5 6 7 8 12 13 12 11 9 7 5 4 4 3 3 5 4 2 2 2 2 5 10 15
6 6 7 8 8 8 13 14 10 5 4 2 2 3 4 5 9 6 6 6 7 7 6 6 8 10 9 7 6 6 5 4 3 3 5 5 2 2 1 0 1 2 4
Wind_Direction
172 190 199 194 182 175 172 189 149 144 141 131 127 116 97 85 77 63 31 12 354 325 212 204 196 221 229 214 196 193 180 161 172 168 163 161 156 147 133 114 91 57 23
186 191 203 204 191 192 189 184 167 157 151 150 140 131 116 86 60 51 48 31 15 11 79 141 166 178 177 173 167 165 167 149 156 154 160 161 162 157 125 94 63 32 4
195 196 199 209 195 199 197 182 161 144 141 142 139 142 132 113 84 54 44 47 40 32 43 101 118 120 131 142 138 134 127 128 125 124 113 97 81 60 344 336 332 331 350
204 193 200 218 203 193 188 178 170 159 176 180 175 185 163 148 333 38 55 50 50 45 35 59 88 97 108 118 120 120 123 125 124 126 123 116 108 213 292 292 298 317 348
211 201 208 222 203 189 193 192 182 171 185 196 193 181 180 182 258 355 40 64 34 37 41 39 63 72 81 96 113 117 124 129 133 133 131 132 133 234 276 290 313 355 330
208 204 221 214 200 202 204 199 179 161 168 166 138 74 7 317 290 346 322 356 27 25 56 46 55 62 72 80 95 107 102 115 129 145 132 116 162 262 266 267 274 300 307
207 196 221 211 196 205 200 188 160 138 130 129 105 62 4 1 312 286 279 254 241 251 92 67 56 50 66 76 82 86 79 99 116 123 123 90 19 275 270 281 294 305 292
209 198 223 218 190 183 174 160 144 109 96 142 132 125 72 319 278 253 268 250 234 242 244 219 148 93 95 97 90 83 69 89 104 95 95 81 45 322 236 271 299 324 334
188 180 203 219 189 179 171 165 161 162 150 151 145 140 147 209 253 261 250 247 235 235 243 231 210 170 143 127 116 95 71 66 57 54 58 60 51 65 104 118 68 53 51
187 184 179 195 187 182 175 172 173 162 151 152 148 144 121 142 180 298 273 253 235 232 232 228 219 206 193 176 169 131 104 75 69 57 48 55 71 104 102 100 82 61 67
197 195 185 185 188 190 186 176 167 165 170 169 168 156 146 130 157 189 276 287 267 238 225 219 216 215 213 210 190 164 132 110 89 68 56 58 62 89 96 84 78 60 50
211 192 183 183 198 197 193 191 176 181 192 196 192 181 165 155 176 176 219 248 261 255 231 218 214 214 214 218 214 198 186 177 148 104 66 53 42 44 53 49 41 27 8
186 191 173 184 199 196 202 199 180 187 196 213 211 211 183 173 156 169 177 216 256 273 264 231 221 213 211 211 215 210 205 197 183 167 142 94 57 47 51 48 23 346 330
173 166 175 191 197 190 211 209 185 197 207 220 214 210 173 182 165 177 170 168 226 264 263 247 227 214 211 211 214 211 209 208 201 195 186 179 181 179 120 78 59 5 342
170 168 170 169 165 185 230 217 210 214 208 224 221 218 170 171 183 195 173 169 198 232 256 232 222 208 210 211 210 206 206 211 206 203 202 200 202 201 191 196 210 296 318
185 154 160 154 130 161 216 218 228 254 243 246 226 202 203 174 191 199 193 186 199 216 250 239 224 219 191 207 210 205 208 210 208 206 205 209 213 213 213 221 230 256 285
182 181 191 168 174 199 202 189 208 201 207 237 265 268 265 229 207 205 201 204 213 206 230 240 218 223 190 194 205 206 209 207 212 209 210 212 215 219 224 231 235 242 264
212 204 186 174 184 192 192 191 184 194 199 212 231 276 281 267 240 219 210 210 215 209 216 237 223 207 212 185 180 188 205 211 214 213 213 216 220 221 224 229 231 232 241
273 251 212 199 191 186 185 195 184 173 196 237 242 258 281 281 270 248 229 224 217 209 207 223 225 198 203 148 130 149 196 216 220 219 218 220 223 225 226 225 227 230 237
351 296 251 235 224 209 195 184 182 169 185 212 239 270 281 272 275 267 250 238 219 209 201 209 201 183 192 179 168 197 218 215 218 216 217 220 226 231 233 229 229 233 239
23 296 274 244 244 233 214 192 177 175 180 191 209 240 306 337 304 291 286 279 214 201 200 202 181 169 176 178 210 201 217 201 218 209 202 219 223 230 234 232 232 233 232
317 266 267 278 290 278 262 219 186 179 183 188 199 214 227 231 253 276 281 272 238 203 187 197 212 222 210 201 205 195 186 174 213 190 190 218 209 227 227 229 227 227 228
345 344 343 328 326 6 6 5 186 184 189 200 202 206 212 220 228 252 276 281 247 219 199 186 211 236 235 214 202 202 200 191 197 174 169 215 200 234 230 235 234 230 226
6 358 6 16 16 12 7 7 9 150 184 207 211 216 215 226 234 226 232 253 256 239 217 208 220 236 229 215 220 219 202 196 196 174 167 217 204 228 223 234 234 231 225
26 27 31 35 37 24 16 24 57 54 35 288 238 225 226 247 252 226 207 228 248 247 238 238 235 236 235 232 228 224 203 193 206 200 189 207 209 238 236 253 249 237 229
22 28 37 31 38 32 31 38 45 33 19 6 295 275 266 267 277 254 214 211 234 244 225 238 252 254 246 241 248 241 221 195 176 197 190 186 201 222 292 349 357 320 248
Height
1545 1546 1547 1547 1548 1549 1550 1552 1553 1555 1556 1557 1557 1557 1556 1555 1554 1554 1554 1554 1554 1553 1553 1553 1553 1554 1555 1556 1557 1558 1560 1561 1563 1563 1564 1565 1566 1565 1566 1566 1567 1567 1567
1544 1545 1545 1546 1547 1549 1550 1552 1552 1553 1555 1556 1557 1556 1555 1555 1555 1554 1553 1553 1553 1553 1552 1552 1552 1553 1555 1556 1557 1558 1560 1560 1562 1562 1563 1564 1565 1565 1565 1565 1566 1566 1567
1543 1545 1545 1545 1546 1547 1549 1550 1551 1553 1554 1555 1556 1556 1556 1556 1555 1555 1554 1554 1553 1553 1553 1552 1552 1552 1554 1555 1556 1558 1559 1560 1561 1561 1562 1563 1564 1564 1565 1564 1564 1565 1565
1541 1543 1544 1546 1547 1547 1548 1550 1551 1552 1553 1554 1555 1555 1555 1556 1555 1554 1554 1555 1555 1554 1554 1554 1553 1553 1553 1555 1556 1557 1558 1559 1560 1561 1561 1562 1562 1562 1563 1563 1563 1563 1564
1540 1541 1543 1545 1546 1547 1547 1548 1550 1551 1552 1553 1553 1554 1554 1554 1555 1555 1555 1555 1556 1556 1555 1555 1554 1554 1554 1555 1556 1557 1558 1559 1559 1559 1560 1560 1560 1560 1561 1562 1562 1562 1562
1537 1539 1541 1543 1544 1545 1545 1546 1547 1548 1550 1551 1552 1553 1554 1554 1554 1554 1555 1555 1556 1556 1555 1556 1555 1555 1555 1556 1557 1557 1558 1558 1558 1559 1559 1559 1559 1559 1559 1560 1561 1561 1561
1536 1538 1539 1541 1542 1543 1545 1546 1545 1546 1547 1549 1550 1551 1552 1553 1553 1554 1554 1554 1555 1556 1556 1556 1556 1556 1556 1557 1557 1557 1558 1559 1559 1558 1558 1558 1557 1558 1558 1559 1559 1559 1560
1534 1536 1538 1537 1539 1541 1542 1544 1544 1546 1548 1548 1549 1549 1551 1554 1553 1553 1553 1552 1553 1555 1555 1555 1555 1556 1556 1557 1557 1558 1559 1559 1560 1558 1557 1557 1556 1557 1557 1557 1558 1558 1558
1531 1532 1535 1536 1537 1539 1541 1542 1543 1543 1545 1546 1546 1548 1548 1550 1551 1550 1551 1551 1551 1552 1553 1554 1554 1555 1556 1557 1557 1558 1558 1558 1559 1558 1557 1556 1556 1556 1556 1557 1557 1557 1556
1530 1530 1531 1532 1533 1535 1536 1537 1538 1539 1541 1542 1543 1544 1545 1546 1549 1548 1550 1550 1549 1550 1551 1552 1553 1554 1555 1556 1556 1556 1557 1557 1558 1557 1556 1556 1556 1556 1556 1556 1556 1556 1555
1525 1526 1527 1527 1530 1532 1533 1533 1533 1533 1535 1537 1538 1539 1540 1542 1547 1548 1549 1549 1548 1548 1548 1550 1552 1552 1553 1554 1554 1555 1555 1556 1556 1556 1556 1556 1556 1556 1555 1555 1555 1554 1553
1521 1523 1525 1526 1527 1529 1529 1530 1530 1530 1530 1532 1533 1534 1536 1537 1540 1543 1546 1546 1546 1546 1546 1548 1549 1550 1551 1552 1552 1552 1553 1554 1554 1554 1554 1555 1555 1554 1554 1553 1553 1552 1551
1518 1522 1524 1525 1526 1525 1525 1525 1525 1526 1528 1528 1529 1529 1531 1532 1534 1538 1541 1542 1542 1543 1543 1544 1545 1547 1548 1549 1550 1550 1550 1551 1551 1552 1552 1552 1553 1553 1552 1551 1550 1549 1549
1516 1518 1520 1523 1523 1521 1522 1521 1521 1522 1523 1524 1524 1525 1526 1527 1529 1532 1535 1536 1537 1539 1539 1541 1541 1543 1545 1547 1547 1548 1548 1549 1549 1549 1550 1550 1551 1551 1550 1549 1548 1547 1547
1512 1514 1517 1519 1519 1519 1519 1518 1517 1518 1517 1519 1520 1521 1522 1523 1525 1528 1529 1530 1534 1535 1535 1537 1539 1541 1542 1544 1544 1545 1546 1547 1547 1547 1547 1548 1548 1548 1547 1547 1546 1546 1545
1509 1508 1512 1514 1515 1516 1517 1517 1515 1517 1516 1516 1516 1517 1518 1519 1520 1522 1523 1524 1528 1531 1532 1532 1535 1538 1540 1541 1541 1541 1542 1544 1545 1545 1545 1546 1546 1545 1545 1545 1544 1544 1543
1505 1507 1509 1510 1512 1514 1513 1513 1513 1512 1513 1514 1513 1513 1513 1514 1514 1516 1518 1520 1522 1524 1526 1527 1530 1533 1536 1537 1537 1538 1539 1540 1541 1542 1542 1543 1543 1543 1543 1542 1542 1542 1541
1505 1506 1505 1507 1510 1512 1512 1511 1511 1512 1512 1512 1511 1510 1509 1509 1509 1510 1511 1513 1516 1518 1520 1521 1525 1528 1530 1531 1532 1533 1534 1536 1537 1538 1538 1538 1539 1540 1540 1540 1539 1539 1538
1504 1504 1504 1506 1508 1509 1509 1509 1509 1510 1511 1512 1510 1507 1505 1505 1506 1507 1507 1508 1510 1512 1515 1517 1518 1521 1524 1525 1526 1527 1529 1531 1532 1533 1534 1534 1536 1537 1538 1537 1536 1536 1536
1499 1501 1503 1505 1506 1507 1506 1506 1506 1507 1508 1509 1509 1505 1503 1504 1505 1505 1505 1505 1506 1507 1509 1512 1514 1516 1518 1519 1521 1522 1524 1526 1527 1528 1529 1530 1531 1532 1533 1533 1533 1532 1532
1497 1498 1500 1501 1502 1504 1503 1502 1503 1505 1505 1507 1507 1506 1504 1504 1506 1505 1504 1504 1503 1504 1505 1507 1509 1511 1512 1514 1516 1518 1520 1521 1521 1522 1523 1524 1526 1527 1527 1528 1528 1528 1528
1496 1498 1497 1497 1498 1500 1500 1499 1500 1501 1503 1505 1506 1505 1504 1503 1504 1504 1503 1502 1502 1502 1503 1505 1506 1507 1508 1509 1511 1512 1513 1514 1516 1517 1518 1519 1521 1521 1522 1522 1523 1522 1522
1495 1495 1495 1495 1496 1495 1496 1496 1496 1498 1500 1502 1503 1503 1503 1503 1503 1503 1502 1502 1501 1501 1501 1501 1502 1503 1504 1505 1506 1507 1508 1509 1511 1512 1513 1514 1515 1515 1517 1517 1517 1516 1517
1493 1492 1492 1492 1492 1492 1492 1492 1493 1495 1496 1498 1499 1500 1500 1500 1500 1501 1501 1501 1501 1501 1500 1501 1501 1502 1503 1503 1504 1504 1504 1504 1506 1507 1509 1510 1511 1512 1512 1513 1513 1512 1512
1492 1491 1490 1489 1489 1489 1489 1489 1490 1491 1493 1494 1495 1496 1497 1498 1498 1498 1498 1499 1500 1500 1499 1499 1499 1500 1501 1501 1501 1501 1500 1502 1502 1504 1506 1506 1507 1507 1507 1508 1509 1509 1509
1494 1492 1491 1490 1490 1489 1488 1488 1488 1489 1490 1490 1491 1491 1492 1494 1495 1495 1495 1496 1497 1497 1497 1497 1497 1498 1498 1498 1499 1498 1498 1499 1500 1501 1502 1503 1504 1504 1503 1504 1505 1505 1505